ELEKTRO-L 3

Last updated on Aug. 10, 2020, 5:33 a.m. UTC

1 44903U 19095A   20222.83330868 -.00000100  00000-0  00000-0 0  9993
2 44903   0.0458 285.9080 0001325 271.1578 137.7527  1.00272946  2299
UTC
Height (km)
Latitude
Longitude
Inclination
Orbital Period
UTC large
Height (km)
Speed (km/s)
/
Latitude / Longitude
Inclination (degrees)
Orbital Period (minutes)
Azimuth
Elevation
Range (km)
Doppler Factor
iOS Compass Heading
iOS Angle

Next 30 passes for location: Hong Kong

Rise time Rise Azimuth (degrees) Set time Set Azimuth (degrees) Duration Max altitude (degrees)

No matching passes for this satellites